Time,TemperatureF,DewpointF,PressureIn,WindDirection,WindDirectionDegrees,WindSpeedMPH,WindSpeedGustMPH,Humidity,HourlyPrecipIn,Conditions,Clouds,dailyrainin,SoftwareType,DateUTC
2017-03-25 00:00:00,64.8,53.0,30.11,South,180,3.0,-999.0,68,0.00,,,0.00,,2017-03-25 04:00:00,
2017-03-25 00:05:00,64.6,53.0,30.11,South,180,3.0,-999.0,68,0.00,,,0.00,,2017-03-25 04:05:00,
2017-03-25 00:10:00,64.4,53.0,30.10,SSW,203,2.0,-999.0,68,0.00,,,0.00,,2017-03-25 04:10:00,
2017-03-25 00:15:00,64.4,53.0,30.12,South,180,3.0,-999.0,68,0.00,,,0.00,,2017-03-25 04:15:00,
2017-03-25 00:20:00,63.9,53.0,30.11,SSE,158,3.0,-999.0,68,0.00,,,0.00,,2017-03-25 04:20:00,
2017-03-25 00:25:00,63.9,53.0,30.10,South,180,3.0,-999.0,69,0.00,,,0.00,,2017-03-25 04:25:00,
2017-03-25 00:30:00,63.9,53.0,30.10,South,180,3.0,-999.0,69,0.00,,,0.00,,2017-03-25 04:30:00,
2017-03-25 00:35:00,63.4,53.0,30.10,South,180,2.0,-999.0,69,0.00,,,0.00,,2017-03-25 04:35:00,
2017-03-25 00:40:00,63.0,53.0,30.10,South,180,2.0,-999.0,70,0.00,,,0.00,,2017-03-25 04:40:00,
2017-03-25 00:45:00,63.0,53.0,30.10,SSE,158,3.0,-999.0,70,0.00,,,0.00,,2017-03-25 04:45:00,
2017-03-25 00:50:00,63.0,53.0,30.10,South,180,3.0,-999.0,70,0.00,,,0.00,,2017-03-25 04:50:00,
2017-03-25 00:55:00,63.0,53.0,30.09,South,180,3.0,-999.0,70,0.00,,,0.00,,2017-03-25 04:55:00,
2017-03-25 01:00:00,62.7,52.0,30.10,SE,135,2.0,-999.0,70,0.00,,,0.00,,2017-03-25 05:00:00,
2017-03-25 01:05:00,62.5,52.0,30.10,West,270,0.0,-999.0,70,0.00,,,0.00,,2017-03-25 05:05:00,
2017-03-25 01:10:00,62.2,52.0,30.09,ESE,113,0.0,-999.0,70,0.00,,,0.00,,2017-03-25 05:10:00,
2017-03-25 01:15:00,62.1,52.0,30.09,NE,45,4.0,-999.0,71,0.00,,,0.00,,2017-03-25 05:15:00,
2017-03-25 01:25:00,62.1,52.0,30.09,SSE,158,3.0,-999.0,71,0.00,,,0.00,,2017-03-25 05:25:00,
2017-03-25 01:30:00,61.9,52.0,30.09,SSE,158,3.0,-999.0,71,0.00,,,0.00,,2017-03-25 05:30:00,
2017-03-25 01:35:00,61.7,52.0,30.08,SSE,158,2.0,-999.0,73,0.00,,,0.00,,2017-03-25 05:35:00,
2017-03-25 01:40:00,61.3,52.0,30.08,SSE,158,2.0,-999.0,73,0.00,,,0.00,,2017-03-25 05:40:00,
2017-03-25 01:45:00,61.3,52.0,30.08,SE,135,1.0,-999.0,74,0.00,,,0.00,,2017-03-25 05:45:00,
2017-03-25 01:50:00,61.1,52.0,30.08,SSE,158,2.0,-999.0,74,0.00,,,0.00,,2017-03-25 05:50:00,
2017-03-25 01:56:00,61.1,52.0,30.08,SSW,203,2.0,-999.0,74,0.00,,,0.00,,2017-03-25 05:56:00,
2017-03-25 02:01:00,61.0,52.0,30.08,ESE,113,3.0,-999.0,74,0.00,,,0.00,,2017-03-25 06:01:00,
2017-03-25 02:06:00,61.0,52.0,30.08,NNE,23,3.0,-999.0,74,0.00,,,0.00,,2017-03-25 06:06:00,
2017-03-25 02:11:00,61.0,52.0,30.08,East,90,4.0,-999.0,74,0.00,,,0.00,,2017-03-25 06:11:00,
2017-03-25 02:16:00,61.0,52.0,30.08,South,180,4.0,-999.0,74,0.00,,,0.00,,2017-03-25 06:16:00,
2017-03-25 02:21:00,61.3,52.0,30.08,ESE,113,3.0,-999.0,74,0.00,,,0.00,,2017-03-25 06:21:00,
2017-03-25 02:26:00,61.3,52.0,30.08,SSE,158,3.0,-999.0,74,0.00,,,0.00,,2017-03-25 06:26:00,
2017-03-25 02:31:00,61.1,52.0,30.07,NNE,23,1.0,-999.0,74,0.00,,,0.00,,2017-03-25 06:31:00,
2017-03-25 02:36:00,61.1,53.0,30.07,South,180,2.0,-999.0,75,0.00,,,0.00,,2017-03-25 06:36:00,
2017-03-25 02:41:00,61.1,53.0,30.07,South,180,4.0,-999.0,75,0.00,,,0.00,,2017-03-25 06:41:00,
2017-03-25 02:46:00,61.3,53.0,30.07,NNE,23,3.0,-999.0,75,0.00,,,0.00,,2017-03-25 06:46:00,
2017-03-25 02:51:00,61.9,53.0,30.07,South,180,3.0,-999.0,75,0.00,,,0.00,,2017-03-25 06:51:00,
2017-03-25 02:56:00,61.9,53.0,30.07,SSE,158,3.0,-999.0,75,0.00,,,0.00,,2017-03-25 06:56:00,
2017-03-25 03:01:00,61.9,53.0,30.07,SE,135,3.0,-999.0,75,0.00,,,0.00,,2017-03-25 07:01:00,
2017-03-25 03:06:00,61.9,53.0,30.07,SSE,158,4.0,-999.0,75,0.00,,,0.00,,2017-03-25 07:06:00,
2017-03-25 03:11:00,61.9,53.0,30.07,SE,135,5.0,-999.0,75,0.00,,,0.00,,2017-03-25 07:11:00,
2017-03-25 03:16:00,62.1,53.0,30.07,ESE,113,2.0,-999.0,74,0.00,,,0.00,,2017-03-25 07:16:00,
2017-03-25 03:21:00,61.7,53.0,30.07,SSE,158,2.0,-999.0,74,0.00,,,0.00,,2017-03-25 07:21:00,
2017-03-25 03:26:00,61.5,53.0,30.07,ESE,113,3.0,-999.0,75,0.00,,,0.00,,2017-03-25 07:26:00,
2017-03-25 03:31:00,61.3,53.0,30.07,SSE,158,2.0,-999.0,75,0.00,,,0.00,,2017-03-25 07:31:00,
2017-03-25 03:36:00,61.1,53.0,30.07,SSE,158,1.0,-999.0,75,0.00,,,0.00,,2017-03-25 07:36:00,
2017-03-25 03:41:00,61.1,53.0,30.07,SSE,158,2.0,-999.0,75,0.00,,,0.00,,2017-03-25 07:41:00,
2017-03-25 03:46:00,61.0,53.0,30.07,SSE,158,3.0,-999.0,75,0.00,,,0.00,,2017-03-25 07:46:00,
2017-03-25 03:51:00,60.7,53.0,30.07,SW,225,3.0,-999.0,75,0.00,,,0.00,,2017-03-25 07:51:00,
2017-03-25 03:56:00,60.5,52.0,30.07,SE,135,2.0,-999.0,75,0.00,,,0.00,,2017-03-25 07:56:00,
2017-03-25 04:01:00,60.5,52.0,30.06,SE,135,3.0,-999.0,75,0.00,,,0.00,,2017-03-25 08:01:00,
2017-03-25 04:06:00,60.3,52.0,30.06,South,180,2.0,-999.0,75,0.00,,,0.00,,2017-03-25 08:06:00,
2017-03-25 04:11:00,60.2,53.0,30.06,WNW,293,2.0,-999.0,76,0.00,,,0.00,,2017-03-25 08:11:00,
2017-03-25 04:16:00,60.0,52.0,30.06,SSE,158,2.0,-999.0,76,0.00,,,0.00,,2017-03-25 08:16:00,
2017-03-25 04:21:00,60.0,52.0,30.06,WSW,248,0.0,-999.0,76,0.00,,,0.00,,2017-03-25 08:21:00,
2017-03-25 04:26:00,60.0,52.0,30.06,SSW,203,0.0,-999.0,76,0.00,,,0.00,,2017-03-25 08:26:00,
2017-03-25 04:31:00,60.0,52.0,30.06,SSE,158,2.0,-999.0,76,0.00,,,0.00,,2017-03-25 08:31:00,
2017-03-25 04:36:00,60.0,52.0,30.06,ESE,113,0.0,-999.0,76,0.00,,,0.00,,2017-03-25 08:36:00,
2017-03-25 04:41:00,59.9,52.0,30.06,WNW,293,2.0,-999.0,76,0.00,,,0.00,,2017-03-25 08:41:00,
2017-03-25 04:46:00,59.9,52.0,30.06,SE,135,2.0,-999.0,76,0.00,,,0.00,,2017-03-25 08:46:00,
2017-03-25 04:51:00,59.9,52.0,30.05,ESE,113,0.0,-999.0,76,0.00,,,0.00,,2017-03-25 08:51:00,
2017-03-25 04:56:00,59.9,52.0,30.05,SSE,158,1.0,-999.0,76,0.00,,,0.00,,2017-03-25 08:56:00,
2017-03-25 05:01:00,59.7,52.0,30.06,SSE,158,3.0,-999.0,76,0.00,,,0.00,,2017-03-25 09:01:00,
2017-03-25 05:06:00,59.7,52.0,30.06,East,90,2.0,-999.0,76,0.00,,,0.00,,2017-03-25 09:06:00,
2017-03-25 05:11:00,59.7,52.0,30.06,NE,45,1.0,-999.0,76,0.00,,,0.00,,2017-03-25 09:11:00,
2017-03-25 05:16:00,59.4,52.0,30.06,SSE,158,4.0,-999.0,76,0.00,,,0.00,,2017-03-25 09:16:00,
2017-03-25 05:21:00,59.4,52.0,30.05,SSW,203,1.0,-999.0,78,0.00,,,0.00,,2017-03-25 09:21:00,
2017-03-25 05:26:00,59.3,52.0,30.06,NE,45,3.0,-999.0,78,0.00,,,0.00,,2017-03-25 09:26:00,
2017-03-25 05:31:00,59.4,52.0,30.06,South,180,2.0,-999.0,78,0.00,,,0.00,,2017-03-25 09:31:00,
2017-03-25 05:36:00,59.4,52.0,30.06,SSW,203,3.0,-999.0,78,0.00,,,0.00,,2017-03-25 09:36:00,
2017-03-25 05:41:00,59.4,52.0,30.06,SSE,158,3.0,-999.0,78,0.00,,,0.00,,2017-03-25 09:41:00,
2017-03-25 05:46:00,59.4,52.0,30.06,WSW,248,0.0,-999.0,78,0.00,,,0.00,,2017-03-25 09:46:00,
2017-03-25 05:51:00,59.7,52.0,30.05,ENE,68,2.0,-999.0,78,0.00,,,0.00,,2017-03-25 09:51:00,
2017-03-25 06:01:00,60.0,52.0,30.06,ESE,113,5.0,-999.0,76,0.00,,,0.00,,2017-03-25 10:01:00,
2017-03-25 06:06:00,60.2,53.0,30.06,SSW,203,2.0,-999.0,76,0.00,,,0.00,,2017-03-25 10:06:00,
2017-03-25 06:11:00,60.0,52.0,30.05,ESE,113,4.0,-999.0,76,0.00,,,0.00,,2017-03-25 10:11:00,
2017-03-25 06:16:00,60.0,52.0,30.06,SW,225,5.0,-999.0,76,0.00,,,0.00,,2017-03-25 10:16:00,
2017-03-25 06:19:00,60.0,52.0,30.06,South,180,2.0,-999.0,76,0.00,,,0.00,,2017-03-25 10:19:00,
2017-03-25 06:24:00,60.0,52.0,30.06,South,180,6.0,-999.0,76,0.00,,,0.00,,2017-03-25 10:24:00,
2017-03-25 06:29:00,60.0,52.0,30.06,ESE,113,5.0,-999.0,76,0.00,,,0.00,,2017-03-25 10:29:00,
2017-03-25 06:34:00,59.9,52.0,30.06,WSW,248,3.0,-999.0,76,0.00,,,0.00,,2017-03-25 10:34:00,
2017-03-25 06:39:00,59.7,52.0,30.06,SW,225,2.0,-999.0,76,0.00,,,0.00,,2017-03-25 10:39:00,
2017-03-25 06:44:00,59.7,52.0,30.07,WNW,293,1.0,-999.0,76,0.00,,,0.00,,2017-03-25 10:44:00,
2017-03-25 06:49:00,59.4,52.0,30.06,SSE,158,4.0,-999.0,76,0.00,,,0.00,,2017-03-25 10:49:00,
2017-03-25 06:54:00,59.4,52.0,30.06,SSE,158,2.0,-999.0,76,0.00,,,0.00,,2017-03-25 10:54:00,
2017-03-25 06:59:00,59.4,52.0,30.06,SW,225,1.0,-999.0,76,0.00,,,0.00,,2017-03-25 10:59:00,
2017-03-25 07:04:00,59.3,52.0,30.06,East,90,2.0,-999.0,76,0.00,,,0.00,,2017-03-25 11:04:00,
2017-03-25 07:09:00,59.2,51.0,30.06,SSE,158,4.0,-999.0,76,0.00,,,0.00,,2017-03-25 11:09:00,
2017-03-25 07:14:00,59.2,51.0,30.07,South,180,2.0,-999.0,76,0.00,,,0.00,,2017-03-25 11:14:00,
2017-03-25 07:19:00,59.2,51.0,30.06,South,180,3.0,-999.0,76,0.00,,,0.00,,2017-03-25 11:19:00,
2017-03-25 07:25:00,59.2,51.0,30.07,SE,135,1.0,-999.0,76,0.00,,,0.00,,2017-03-25 11:25:00,
2017-03-25 07:30:00,58.8,51.0,30.06,ESE,113,3.0,-999.0,76,0.00,,,0.00,,2017-03-25 11:30:00,
2017-03-25 07:35:00,58.8,51.0,30.06,SSE,158,3.0,-999.0,76,0.00,,,0.00,,2017-03-25 11:35:00,
2017-03-25 07:40:00,58.5,51.0,30.06,NE,45,1.0,-999.0,76,0.00,,,0.00,,2017-03-25 11:40:00,
2017-03-25 07:41:00,58.5,51.0,30.06,SSE,158,3.0,-999.0,76,0.00,,,0.00,,2017-03-25 11:41:00,
2017-03-25 07:46:00,58.5,51.0,30.07,SSE,158,6.0,-999.0,76,0.00,,,0.00,,2017-03-25 11:46:00,
2017-03-25 07:51:00,58.5,51.0,30.07,WNW,293,1.0,-999.0,76,0.00,,,0.00,,2017-03-25 11:51:00,
2017-03-25 07:56:00,58.8,51.0,30.07,West,270,2.0,-999.0,76,0.00,,,0.00,,2017-03-25 11:56:00,
2017-03-25 08:01:00,59.0,51.0,30.07,ESE,113,4.0,-999.0,76,0.00,,,0.00,,2017-03-25 12:01:00,
2017-03-25 08:06:00,59.0,51.0,30.07,SSE,158,2.0,-999.0,76,0.00,,,0.00,,2017-03-25 12:06:00,
2017-03-25 08:11:00,59.0,51.0,30.07,SSW,203,5.0,-999.0,76,0.00,,,0.00,,2017-03-25 12:11:00,
2017-03-25 08:16:00,59.2,51.0,30.07,SSW,203,3.0,-999.0,75,0.00,,,0.00,,2017-03-25 12:16:00,
2017-03-25 08:21:00,59.3,51.0,30.07,SSE,158,4.0,-999.0,75,0.00,,,0.00,,2017-03-25 12:21:00,
2017-03-25 08:26:00,59.3,51.0,30.07,South,180,4.0,-999.0,75,0.00,,,0.00,,2017-03-25 12:26:00,
2017-03-25 08:31:00,59.3,51.0,30.07,South,180,5.0,-999.0,75,0.00,,,0.00,,2017-03-25 12:31:00,
2017-03-25 08:36:00,59.3,51.0,30.07,SE,135,5.0,-999.0,75,0.00,,,0.00,,2017-03-25 12:36:00,
2017-03-25 08:41:00,59.4,51.0,30.08,NE,45,3.0,-999.0,75,0.00,,,0.00,,2017-03-25 12:41:00,
2017-03-25 08:46:00,59.7,51.0,30.07,SSE,158,6.0,-999.0,75,0.00,,,0.00,,2017-03-25 12:46:00,
2017-03-25 08:51:00,60.0,51.0,30.08,ENE,68,3.0,-999.0,74,0.00,,,0.00,,2017-03-25 12:51:00,
2017-03-25 08:56:00,60.3,52.0,30.07,SSE,158,4.0,-999.0,74,0.00,,,0.00,,2017-03-25 12:56:00,
2017-03-25 09:01:00,61.0,52.0,30.08,West,270,1.0,-999.0,73,0.00,,,0.00,,2017-03-25 13:01:00,
2017-03-25 09:06:00,61.7,52.0,30.08,ESE,113,6.0,-999.0,70,0.00,,,0.00,,2017-03-25 13:06:00,
2017-03-25 09:11:00,62.1,52.0,30.08,South,180,5.0,-999.0,70,0.00,,,0.00,,2017-03-25 13:11:00,
2017-03-25 09:16:00,62.2,52.0,30.08,South,180,4.0,-999.0,70,0.00,,,0.00,,2017-03-25 13:16:00,
2017-03-25 09:21:00,62.2,52.0,30.08,South,180,2.0,-999.0,70,0.00,,,0.00,,2017-03-25 13:21:00,
2017-03-25 09:26:00,62.4,52.0,30.08,SSE,158,3.0,-999.0,70,0.00,,,0.00,,2017-03-25 13:26:00,
2017-03-25 09:31:00,62.7,52.0,30.08,ESE,113,6.0,-999.0,69,0.00,,,0.00,,2017-03-25 13:31:00,
2017-03-25 09:36:00,63.0,52.0,30.08,SSW,203,8.0,-999.0,69,0.00,,,0.00,,2017-03-25 13:36:00,
2017-03-25 09:41:00,63.4,52.0,30.09,SSW,203,3.0,-999.0,68,0.00,,,0.00,,2017-03-25 13:41:00,
2017-03-25 09:46:00,63.6,52.0,30.09,South,180,6.0,-999.0,68,0.00,,,0.00,,2017-03-25 13:46:00,
2017-03-25 09:51:00,63.6,52.0,30.08,South,180,7.0,-999.0,68,0.00,,,0.00,,2017-03-25 13:51:00,
2017-03-25 10:01:00,64.1,53.0,30.09,WNW,293,3.0,-999.0,66,0.00,,,0.00,,2017-03-25 14:01:00,
2017-03-25 10:06:00,64.9,53.0,30.08,South,180,9.0,-999.0,65,0.00,,,0.00,,2017-03-25 14:06:00,
2017-03-25 10:08:00,65.0,53.0,30.08,SSW,203,3.0,-999.0,65,0.00,,,0.00,,2017-03-25 14:08:00,
2017-03-25 10:13:00,65.8,53.0,30.08,East,90,5.0,-999.0,65,0.00,,,0.00,,2017-03-25 14:13:00,
2017-03-25 10:18:00,66.4,53.0,30.08,South,180,6.0,-999.0,63,0.00,,,0.00,,2017-03-25 14:18:00,
2017-03-25 10:28:00,65.9,53.0,30.08,SSE,158,5.0,-999.0,63,0.00,,,0.00,,2017-03-25 14:28:00,
2017-03-25 10:33:00,66.4,53.0,30.08,SSE,158,8.0,-999.0,63,0.00,,,0.00,,2017-03-25 14:33:00,
2017-03-25 10:38:00,66.4,53.0,30.08,South,180,6.0,-999.0,63,0.00,,,0.00,,2017-03-25 14:38:00,
2017-03-25 10:43:00,65.9,53.0,30.08,East,90,6.0,-999.0,63,0.00,,,0.00,,2017-03-25 14:43:00,
2017-03-25 10:48:00,66.1,53.0,30.08,South,180,7.0,-999.0,63,0.00,,,0.00,,2017-03-25 14:48:00,
2017-03-25 10:53:00,66.4,53.0,30.09,NNW,338,5.0,-999.0,63,0.00,,,0.00,,2017-03-25 14:53:00,
2017-03-25 10:58:00,66.6,54.0,30.08,NE,45,3.0,-999.0,63,0.00,,,0.00,,2017-03-25 14:58:00,
2017-03-25 11:03:00,66.5,54.0,30.08,South,180,4.0,-999.0,63,0.00,,,0.00,,2017-03-25 15:03:00,
2017-03-25 11:08:00,66.5,54.0,30.09,South,180,5.0,-999.0,63,0.00,,,0.00,,2017-03-25 15:08:00,
2017-03-25 11:13:00,67.3,54.0,30.09,SSE,158,6.0,-999.0,63,0.00,,,0.00,,2017-03-25 15:13:00,
2017-03-25 11:23:00,67.6,54.0,30.08,SSE,158,6.0,-999.0,63,0.00,,,0.00,,2017-03-25 15:23:00,
2017-03-25 11:28:00,68.4,54.0,30.08,WSW,248,7.0,-999.0,61,0.00,,,0.00,,2017-03-25 15:28:00,
2017-03-25 11:33:00,68.9,55.0,30.07,SSE,158,6.0,-999.0,61,0.00,,,0.00,,2017-03-25 15:33:00,
2017-03-25 11:38:00,68.4,55.0,30.07,SW,225,5.0,-999.0,63,0.00,,,0.00,,2017-03-25 15:38:00,
2017-03-25 11:43:00,69.6,56.0,30.07,SSE,158,9.0,-999.0,61,0.00,,,0.00,,2017-03-25 15:43:00,
2017-03-25 11:48:00,69.6,55.0,30.07,South,180,8.0,-999.0,61,0.00,,,0.00,,2017-03-25 15:48:00,
2017-03-25 11:53:00,69.4,55.0,30.06,SSW,203,5.0,-999.0,61,0.00,,,0.00,,2017-03-25 15:53:00,
2017-03-25 11:58:00,69.4,55.0,30.06,South,180,6.0,-999.0,61,0.00,,,0.00,,2017-03-25 15:58:00,
2017-03-25 12:03:00,69.0,55.0,30.06,South,180,3.0,-999.0,61,0.00,,,0.00,,2017-03-25 16:03:00,
2017-03-25 12:08:00,69.4,55.0,30.06,SE,135,7.0,-999.0,61,0.00,,,0.00,,2017-03-25 16:08:00,
2017-03-25 12:13:00,69.4,55.0,30.06,SSW,203,4.0,-999.0,61,0.00,,,0.00,,2017-03-25 16:13:00,
2017-03-25 12:18:00,69.6,55.0,30.05,SW,225,7.0,-999.0,61,0.00,,,0.00,,2017-03-25 16:18:00,
2017-03-25 12:23:00,69.8,55.0,30.06,SSE,158,4.0,-999.0,60,0.00,,,0.00,,2017-03-25 16:23:00,
2017-03-25 12:28:00,69.8,55.0,30.05,South,180,7.0,-999.0,60,0.00,,,0.00,,2017-03-25 16:28:00,
2017-03-25 12:33:00,71.1,56.0,30.06,South,180,6.0,-999.0,59,0.00,,,0.00,,2017-03-25 16:33:00,
2017-03-25 12:38:00,70.9,55.0,30.05,ESE,113,4.0,-999.0,58,0.00,,,0.00,,2017-03-25 16:38:00,
2017-03-25 12:43:00,71.0,55.0,30.05,SSE,158,6.0,-999.0,58,0.00,,,0.00,,2017-03-25 16:43:00,
2017-03-25 12:48:00,71.0,55.0,30.05,SSW,203,5.0,-999.0,58,0.00,,,0.00,,2017-03-25 16:48:00,
2017-03-25 12:53:00,71.4,55.0,30.05,ESE,113,7.0,-999.0,58,0.00,,,0.00,,2017-03-25 16:53:00,
2017-03-25 12:58:00,71.8,56.0,30.05,East,90,4.0,-999.0,58,0.00,,,0.00,,2017-03-25 16:58:00,
2017-03-25 13:04:00,72.3,55.0,30.05,South,180,3.0,-999.0,55,0.00,,,0.00,,2017-03-25 17:04:00,
2017-03-25 13:09:00,73.0,56.0,30.05,South,180,5.0,-999.0,55,0.00,,,0.00,,2017-03-25 17:09:00,
2017-03-25 13:14:00,72.5,55.0,30.04,South,180,7.0,-999.0,55,0.00,,,0.00,,2017-03-25 17:14:00,
2017-03-25 13:19:00,72.6,55.0,30.04,North,0,5.0,-999.0,55,0.00,,,0.00,,2017-03-25 17:19:00,
2017-03-25 13:24:00,72.1,55.0,30.04,WNW,293,3.0,-999.0,55,0.00,,,0.00,,2017-03-25 17:24:00,
2017-03-25 13:29:00,72.3,55.0,30.04,West,270,4.0,-999.0,55,0.00,,,0.00,,2017-03-25 17:29:00,
2017-03-25 13:34:00,71.9,55.0,30.04,SSE,158,2.0,-999.0,55,0.00,,,0.00,,2017-03-25 17:34:00,
2017-03-25 13:39:00,71.5,55.0,30.03,South,180,5.0,-999.0,56,0.00,,,0.00,,2017-03-25 17:39:00,
2017-03-25 13:44:00,71.8,55.0,30.03,South,180,6.0,-999.0,56,0.00,,,0.00,,2017-03-25 17:44:00,
2017-03-25 13:49:00,71.5,55.0,30.03,SSE,158,7.0,-999.0,55,0.00,,,0.00,,2017-03-25 17:49:00,
2017-03-25 13:54:00,72.1,55.0,30.02,ENE,68,5.0,-999.0,55,0.00,,,0.00,,2017-03-25 17:54:00,
2017-03-25 13:59:00,72.6,55.0,30.02,East,90,6.0,-999.0,55,0.00,,,0.00,,2017-03-25 17:59:00,
2017-03-25 14:04:00,73.4,55.0,30.01,South,180,7.0,-999.0,54,0.00,,,0.00,,2017-03-25 18:04:00,
2017-03-25 14:09:00,73.5,55.0,30.02,SSE,158,6.0,-999.0,54,0.00,,,0.00,,2017-03-25 18:09:00,
2017-03-25 14:14:00,75.1,56.0,30.02,South,180,6.0,-999.0,53,0.00,,,0.00,,2017-03-25 18:14:00,
2017-03-25 14:19:00,76.3,57.0,30.02,SE,135,1.0,-999.0,51,0.00,,,0.00,,2017-03-25 18:19:00,
2017-03-25 14:24:00,76.4,57.0,30.02,SSE,158,9.0,-999.0,50,0.00,,,0.00,,2017-03-25 18:24:00,
2017-03-25 14:29:00,76.0,57.0,30.01,ESE,113,4.0,-999.0,51,0.00,,,0.00,,2017-03-25 18:29:00,
2017-03-25 14:34:00,76.4,57.0,30.01,ESE,113,12.0,-999.0,50,0.00,,,0.00,,2017-03-25 18:34:00,
2017-03-25 14:39:00,75.6,56.0,30.01,SSW,203,9.0,-999.0,50,0.00,,,0.00,,2017-03-25 18:39:00,
2017-03-25 14:49:00,75.3,56.0,30.01,ESE,113,4.0,-999.0,51,0.00,,,0.00,,2017-03-25 18:49:00,
2017-03-25 14:54:00,75.9,57.0,30.00,South,180,1.0,-999.0,51,0.00,,,0.00,,2017-03-25 18:54:00,
2017-03-25 14:59:00,75.6,56.0,30.00,NNE,23,7.0,-999.0,51,0.00,,,0.00,,2017-03-25 18:59:00,
2017-03-25 15:05:00,75.0,56.0,30.00,NW,315,3.0,-999.0,51,0.00,,,0.00,,2017-03-25 19:05:00,
2017-03-25 15:10:00,75.6,56.0,29.99,NW,315,3.0,-999.0,51,0.00,,,0.00,,2017-03-25 19:10:00,
2017-03-25 15:15:00,76.5,57.0,30.00,South,180,6.0,-999.0,51,0.00,,,0.00,,2017-03-25 19:15:00,
2017-03-25 15:20:00,77.4,57.0,29.99,ESE,113,4.0,-999.0,50,0.00,,,0.00,,2017-03-25 19:20:00,
2017-03-25 15:25:00,76.8,56.0,29.99,SSE,158,6.0,-999.0,50,0.00,,,0.00,,2017-03-25 19:25:00,
2017-03-25 15:30:00,76.0,56.0,29.99,SSE,158,7.0,-999.0,50,0.00,,,0.00,,2017-03-25 19:30:00,
2017-03-25 15:35:00,75.5,56.0,29.99,SSW,203,4.0,-999.0,50,0.00,,,0.00,,2017-03-25 19:35:00,
2017-03-25 15:40:00,75.0,55.0,29.99,WNW,293,8.0,-999.0,50,0.00,,,0.00,,2017-03-25 19:40:00,
2017-03-25 15:45:00,75.1,55.0,29.99,NNE,23,3.0,-999.0,50,0.00,,,0.00,,2017-03-25 19:45:00,
2017-03-25 15:55:00,75.0,55.0,29.98,ESE,113,6.0,-999.0,50,0.00,,,0.00,,2017-03-25 19:55:00,
2017-03-25 16:01:00,74.6,54.0,29.98,South,180,7.0,-999.0,50,0.00,,,0.00,,2017-03-25 20:01:00,
2017-03-25 16:06:00,74.6,55.0,29.98,SSE,158,6.0,-999.0,50,0.00,,,0.00,,2017-03-25 20:06:00,
2017-03-25 16:11:00,74.6,55.0,29.98,SSE,158,5.0,-999.0,50,0.00,,,0.00,,2017-03-25 20:11:00,
2017-03-25 16:16:00,74.4,55.0,29.98,East,90,5.0,-999.0,50,0.00,,,0.00,,2017-03-25 20:16:00,
2017-03-25 16:21:00,74.4,55.0,29.98,South,180,12.0,-999.0,51,0.00,,,0.00,,2017-03-25 20:21:00,
2017-03-25 16:26:00,74.3,55.0,29.98,South,180,7.0,-999.0,51,0.00,,,0.00,,2017-03-25 20:26:00,
2017-03-25 16:31:00,74.3,55.0,29.98,SSE,158,4.0,-999.0,51,0.00,,,0.00,,2017-03-25 20:31:00,
2017-03-25 16:36:00,74.4,55.0,29.98,South,180,6.0,-999.0,51,0.00,,,0.00,,2017-03-25 20:36:00,
2017-03-25 16:41:00,74.0,55.0,29.98,South,180,6.0,-999.0,51,0.00,,,0.00,,2017-03-25 20:41:00,
2017-03-25 16:46:00,74.3,55.0,29.98,South,180,6.0,-999.0,51,0.00,,,0.00,,2017-03-25 20:46:00,
2017-03-25 16:51:00,74.6,55.0,29.98,East,90,7.0,-999.0,50,0.00,,,0.00,,2017-03-25 20:51:00,
2017-03-25 16:56:00,74.8,55.0,29.97,South,180,7.0,-999.0,50,0.00,,,0.00,,2017-03-25 20:56:00,
2017-03-25 17:01:00,75.1,55.0,29.97,South,180,4.0,-999.0,50,0.00,,,0.00,,2017-03-25 21:01:00,
2017-03-25 17:06:00,76.0,56.0,29.98,East,90,4.0,-999.0,50,0.00,,,0.00,,2017-03-25 21:06:00,
2017-03-25 17:11:00,75.9,55.0,29.97,NW,315,6.0,-999.0,49,0.00,,,0.00,,2017-03-25 21:11:00,
2017-03-25 17:16:00,75.9,55.0,29.97,SSW,203,5.0,-999.0,49,0.00,,,0.00,,2017-03-25 21:16:00,
2017-03-25 17:21:00,75.3,54.0,29.97,SE,135,4.0,-999.0,49,0.00,,,0.00,,2017-03-25 21:21:00,
2017-03-25 17:31:00,74.6,54.0,29.96,SSW,203,2.0,-999.0,50,0.00,,,0.00,,2017-03-25 21:31:00,
2017-03-25 17:36:00,74.8,55.0,29.96,SSE,158,4.0,-999.0,50,0.00,,,0.00,,2017-03-25 21:36:00,
2017-03-25 17:41:00,74.8,54.0,29.96,SE,135,5.0,-999.0,50,0.00,,,0.00,,2017-03-25 21:41:00,
2017-03-25 17:47:00,75.0,55.0,29.96,SSE,158,4.0,-999.0,50,0.00,,,0.00,,2017-03-25 21:47:00,
2017-03-25 17:52:00,75.0,55.0,29.95,ESE,113,4.0,-999.0,50,0.00,,,0.00,,2017-03-25 21:52:00,
2017-03-25 17:57:00,75.0,55.0,29.95,NE,45,4.0,-999.0,50,0.00,,,0.00,,2017-03-25 21:57:00,
2017-03-25 18:02:00,74.8,54.0,29.97,NW,315,6.0,-999.0,50,0.00,,,0.00,,2017-03-25 22:02:00,
2017-03-25 18:07:00,74.6,55.0,29.96,ENE,68,5.0,-999.0,50,0.00,,,0.00,,2017-03-25 22:07:00,
2017-03-25 18:12:00,74.4,55.0,29.96,East,90,5.0,-999.0,50,0.00,,,0.00,,2017-03-25 22:12:00,
2017-03-25 18:17:00,74.3,54.0,29.96,SSE,158,7.0,-999.0,50,0.00,,,0.00,,2017-03-25 22:17:00,
2017-03-25 18:22:00,74.3,54.0,29.95,NNW,338,6.0,-999.0,50,0.00,,,0.00,,2017-03-25 22:22:00,
2017-03-25 18:24:00,74.3,54.0,29.95,SE,135,5.0,-999.0,50,0.00,,,0.00,,2017-03-25 22:24:00,
2017-03-25 18:29:00,74.3,54.0,29.95,SSW,203,8.0,-999.0,50,0.00,,,0.00,,2017-03-25 22:29:00,
2017-03-25 18:34:00,74.0,54.0,29.96,ESE,113,6.0,-999.0,50,0.00,,,0.00,,2017-03-25 22:34:00,
2017-03-25 18:39:00,73.8,55.0,29.96,East,90,7.0,-999.0,51,0.00,,,0.00,,2017-03-25 22:39:00,
2017-03-25 18:44:00,73.5,54.0,29.96,SSE,158,4.0,-999.0,51,0.00,,,0.00,,2017-03-25 22:44:00,
2017-03-25 18:49:00,73.4,54.0,29.97,SE,135,8.0,-999.0,51,0.00,,,0.00,,2017-03-25 22:49:00,
2017-03-25 18:54:00,73.1,54.0,29.99,West,270,7.0,-999.0,51,0.00,,,0.00,,2017-03-25 22:54:00,
2017-03-25 18:59:00,64.1,56.0,30.01,West,270,10.0,22.0,75,0.00,,,0.00,,2017-03-25 22:59:00,
2017-03-25 19:04:00,61.0,54.0,30.02,WSW,248,5.0,-999.0,80,0.00,,,0.00,,2017-03-25 23:04:00,
2017-03-25 19:09:00,60.7,54.0,30.01,WSW,248,2.0,-999.0,80,0.00,,,0.00,,2017-03-25 23:09:00,
2017-03-25 19:14:00,60.5,54.0,30.00,West,270,2.0,-999.0,81,0.00,,,0.00,,2017-03-25 23:14:00,
2017-03-25 19:19:00,60.5,55.0,30.00,WSW,248,2.0,-999.0,81,0.00,,,0.00,,2017-03-25 23:19:00,
2017-03-25 19:25:00,60.3,55.0,30.00,West,270,3.0,-999.0,83,0.00,,,0.00,,2017-03-25 23:25:00,
2017-03-25 19:30:00,60.3,55.0,29.99,West,270,2.0,-999.0,83,0.00,,,0.00,,2017-03-25 23:30:00,
2017-03-25 19:35:00,60.2,55.0,29.99,WNW,293,2.0,-999.0,83,0.00,,,0.00,,2017-03-25 23:35:00,
2017-03-25 19:40:00,60.0,54.0,30.00,NW,315,4.0,-999.0,83,0.00,,,0.00,,2017-03-25 23:40:00,
2017-03-25 19:45:00,60.0,54.0,29.99,West,270,3.0,-999.0,83,0.00,,,0.00,,2017-03-25 23:45:00,
2017-03-25 19:50:00,60.0,55.0,29.99,NNW,338,2.0,-999.0,83,0.00,,,0.00,,2017-03-25 23:50:00,
2017-03-25 19:55:00,59.9,55.0,30.00,SW,225,0.0,-999.0,83,0.00,,,0.00,,2017-03-25 23:55:00,
2017-03-25 20:00:00,59.9,55.0,29.99,NNW,338,0.0,-999.0,83,0.00,,,0.00,,2017-03-26 00:00:00,
2017-03-25 20:05:00,59.9,55.0,30.00,WSW,248,1.0,-999.0,83,0.00,,,0.00,,2017-03-26 00:05:00,
2017-03-25 20:10:00,59.7,54.0,30.00,North,0,2.0,-999.0,83,0.00,,,0.00,,2017-03-26 00:10:00,
2017-03-25 20:12:00,59.7,54.0,30.01,WSW,248,2.0,-999.0,83,0.00,,,0.00,,2017-03-26 00:12:00,
2017-03-25 20:17:00,59.7,54.0,30.00,WNW,293,0.0,-999.0,83,0.00,,,0.00,,2017-03-26 00:17:00,
2017-03-25 20:22:00,59.4,54.0,30.00,SW,225,1.0,-999.0,83,0.00,,,0.00,,2017-03-26 00:22:00,
2017-03-25 20:27:00,59.4,54.0,30.01,West,270,0.0,-999.0,83,0.00,,,0.00,,2017-03-26 00:27:00,
2017-03-25 20:32:00,59.4,54.0,30.00,SSE,158,0.0,-999.0,83,0.00,,,0.00,,2017-03-26 00:32:00,
2017-03-25 20:37:00,59.4,54.0,30.00,WSW,248,2.0,-999.0,83,0.00,,,0.00,,2017-03-26 00:37:00,
2017-03-25 20:42:00,59.9,54.0,30.00,SW,225,2.0,-999.0,83,0.00,,,0.00,,2017-03-26 00:42:00,
2017-03-25 20:47:00,60.0,54.0,30.01,SW,225,4.0,-999.0,83,0.00,,,0.00,,2017-03-26 00:47:00,
2017-03-25 20:52:00,60.0,54.0,30.00,West,270,4.0,-999.0,83,0.00,,,0.00,,2017-03-26 00:52:00,
2017-03-25 20:57:00,60.0,54.0,30.01,SW,225,4.0,-999.0,83,0.00,,,0.00,,2017-03-26 00:57:00,
2017-03-25 21:03:00,59.9,54.0,30.01,SW,225,5.0,-999.0,83,0.00,,,0.00,,2017-03-26 01:03:00,
2017-03-25 21:08:00,59.7,54.0,30.01,SSW,203,3.0,-999.0,83,0.00,,,0.00,,2017-03-26 01:08:00,
2017-03-25 21:13:00,59.7,54.0,30.01,SSW,203,3.0,-999.0,83,0.00,,,0.00,,2017-03-26 01:13:00,
2017-03-25 21:18:00,59.4,54.0,30.01,SW,225,2.0,-999.0,85,0.00,,,0.00,,2017-03-26 01:18:00,
2017-03-25 21:23:00,59.4,54.0,30.01,SW,225,2.0,-999.0,85,0.00,,,0.00,,2017-03-26 01:23:00,
2017-03-25 21:28:00,59.3,54.0,30.02,SSW,203,2.0,-999.0,85,0.00,,,0.00,,2017-03-26 01:28:00,
2017-03-25 21:33:00,59.2,55.0,30.04,ESE,113,3.0,-999.0,86,0.00,,,0.00,,2017-03-26 01:33:00,
2017-03-25 21:38:00,59.2,55.0,30.03,South,180,4.0,-999.0,86,0.00,,,0.00,,2017-03-26 01:38:00,
2017-03-25 21:43:00,59.3,55.0,30.03,South,180,5.0,-999.0,86,0.00,,,0.00,,2017-03-26 01:43:00,
2017-03-25 21:48:00,59.4,55.0,30.03,SSW,203,2.0,-999.0,86,0.00,,,0.00,,2017-03-26 01:48:00,
2017-03-25 21:53:00,59.3,55.0,30.03,NNE,23,4.0,-999.0,86,0.00,,,0.00,,2017-03-26 01:53:00,
2017-03-25 22:03:00,59.2,55.0,30.02,ESE,113,4.0,-999.0,86,0.00,,,0.00,,2017-03-26 02:03:00,
2017-03-25 22:08:00,59.2,55.0,30.02,ESE,113,0.0,-999.0,86,0.00,,,0.00,,2017-03-26 02:08:00,
2017-03-25 22:13:00,59.2,55.0,30.01,ENE,68,0.0,-999.0,86,0.00,,,0.00,,2017-03-26 02:13:00,
2017-03-25 22:18:00,59.2,55.0,30.01,ESE,113,0.0,-999.0,86,0.00,,,0.00,,2017-03-26 02:18:00,
2017-03-25 22:23:00,59.2,55.0,30.01,South,180,0.0,-999.0,86,0.00,,,0.00,,2017-03-26 02:23:00,